Wind_Speed
46 45 44 46 49 49 51 50 50 48 46 43 40 39 38 37 36 36 35 35 35 35 35 34 34 34 34 33 33 33 32 32 32 33 34 34 34 34 34 34 34 35 35 35
46 46 46 47 48 48 48 49 49 48 47 43 41 40 40 38 36 36 36 35 35 34 34 34 34 33 33 33 33 33 33 33 33 33 34 34 34 34 34 34 34 35 35 35
46 47 47 49 48 46 46 46 47 47 44 42 42 41 40 39 38 37 36 36 35 34 34 34 33 33 33 33 33 33 33 33 33 33 33 34 34 34 34 34 34 35 35 35
45 47 48 46 45 45 45 44 44 45 44 43 43 42 42 42 41 39 38 36 35 34 34 34 34 34 34 34 33 33 33 33 33 33 33 34 34 34 34 34 34 35 35 35
45 46 45 43 43 43 43 43 42 44 44 44 44 44 43 42 41 41 40 38 37 35 35 35 35 35 34 34 34 33 33 33 33 33 33 33 33 33 34 34 35 35 35 36
43 44 45 42 42 42 44 43 42 43 44 44 45 45 41 41 41 42 42 41 39 38 37 37 37 36 35 34 34 33 33 33 33 33 33 33 33 33 34 34 35 35 35 36
41 43 43 41 41 41 44 43 41 41 42 42 43 43 41 41 42 43 43 42 40 40 39 38 38 37 35 34 34 33 33 33 33 33 33 33 33 34 34 35 35 35 36 37
40 41 39 39 39 40 41 41 42 42 42 42 42 43 44 43 42 42 43 42 42 41 39 38 38 37 36 35 34 34 33 33 33 33 33 33 34 34 35 35 35 36 37 37
40 39 37 38 38 39 39 40 41 42 43 43 42 42 42 42 42 42 43 42 42 40 39 38 38 37 36 35 35 34 34 33 33 33 33 33 34 34 35 35 35 36 37 37
39 39 39 38 39 39 39 39 39 41 41 41 42 42 41 40 41 42 42 42 41 40 39 38 38 37 36 36 35 34 34 34 33 33 33 34 34 35 35 35 36 36 37 38
40 39 38 38 39 39 39 41 40 39 40 39 39 40 40 39 39 40 41 41 40 39 38 38 37 36 36 35 34 34 34 33 33 33 33 34 34 35 35 35 36 37 37 38
38 38 39 39 40 39 39 40 40 40 39 39 38 39 39 39 39 39 39 40 39 38 37 36 36 36 35 35 34 34 34 34 34 34 34 34 35 35 35 36 36 37 38 39
40 40 40 40 41 40 39 38 38 39 38 38 38 38 38 38 37 37 38 37 37 37 37 36 35 35 34 34 34 33 33 33 34 34 34 35 34 35 35 35 36 37 38 39
42 41 40 40 41 41 40 38 37 37 38 37 36 36 36 35 35 34 35 36 35 34 34 33 33 33 33 33 33 33 33 33 33 34 34 34 34 35 35 36 37 38 39 39
41 41 40 40 40 40 41 39 38 38 38 38 37 35 34 33 33 32 33 33 33 32 32 32 32 32 32 33 32 32 32 33 33 33 34 34 34 35 36 36 37 38 39 40
40 41 41 41 40 39 39 39 39 38 37 36 35 34 33 32 32 31 31 31 31 31 31 31 32 32 32 32 32 32 32 32 33 33 33 34 35 35 36 37 38 39 40 40
39 40 40 41 41 40 40 39 39 37 37 36 34 33 33 32 32 31 31 31 31 31 31 31 31 31 31 31 32 32 32 32 33 33 33 34 35 36 37 38 38 39 40 41
37 39 40 41 41 41 40 38 38 37 35 35 34 33 33 33 32 32 32 31 31 31 31 31 30 31 31 30 31 31 32 32 32 33 34 35 36 37 37 38 39 40 41 42
36 38 39 40 40 40 39 38 37 37 36 34 34 34 33 33 32 32 31 31 30 30 31 30 30 30 30 30 30 31 31 32 32 33 34 35 36 37 38 38 39 40 41 42
34 37 38 38 39 40 39 37 36 36 36 35 35 33 33 33 32 31 31 30 30 30 30 30 30 30 30 30 31 31 31 32 32 33 34 35 36 37 38 38 39 40 42 43
33 35 36 37 38 39 38 37 36 36 35 35 34 34 34 33 32 32 31 30 30 30 30 31 30 30 30 31 31 31 31 32 33 33 35 35 36 37 37 38 40 41 42 43
32 34 35 35 36 36 35 36 36 35 34 34 34 33 33 33 32 31 30 30 29 29 29 30 30 30 30 31 31 31 31 32 33 34 35 35 36 36 38 39 41 42 43 44
29 32 33 34 34 35 35 35 36 36 35 35 35 35 35 33 32 32 31 31 30 30 29 30 30 31 31 31 31 32 32 33 33 34 35 35 36 37 39 40 41 43 44 45
27 30 32 33 34 35 34 34 34 34 34 34 34 34 34 33 31 31 31 30 30 29 29 30 30 31 31 32 32 32 32 32 33 34 35 36 37 38 40 41 42 43 44 45
26 29 31 33 33 33 33 33 33 33 33 33 33 33 33 32 31 30 30 30 29 29 30 30 31 31 31 31 31 32 32 32 33 34 35 37 38 40 41 42 43 44 45 46
25 29 30 31 32 32 32 32 32 31 31 31 30 30 30 30 30 30 30 30 30 29 30 30 30 31 31 31 31 32 33 33 35 36 37 38 40 42 43 43 44 45 46 47
24 26 28 29 30 31 32 32 31 30 30 30 30 30 29 29 29 30 29 29 29 29 29 29 29 30 30 31 32 32 33 35 36 37 38 40 42 43 43 44 45 46 47 48
Wind_Direction
221 222 222 223 223 224 226 227 229 228 228 227 230 229 228 228 228 228 230 232 234 236 238 240 243 247 250 253 256 259 262 264 267 270 273 276 278 280 282 284 286 287 288 288
221 222 223 222 222 223 224 226 227 227 227 226 228 228 227 227 226 227 228 230 232 234 237 239 243 247 250 252 256 258 261 264 267 271 273 276 278 279 281 284 285 287 288 288
224 224 226 225 223 224 224 225 226 226 226 226 227 228 228 227 227 227 228 230 232 235 237 239 242 246 250 252 255 258 261 264 268 271 273 276 278 280 282 283 285 286 287 288
225 226 229 227 225 226 226 225 226 226 226 227 227 229 230 230 228 228 229 231 234 236 238 240 242 245 249 252 255 258 261 264 268 271 273 276 278 280 282 283 285 286 287 288
225 229 227 227 227 227 228 227 227 227 227 228 228 228 229 231 230 230 231 232 233 236 238 240 243 246 249 253 255 257 260 264 268 270 273 276 278 280 282 284 285 286 287 289
225 227 225 225 226 228 228 227 226 228 229 230 229 229 229 231 232 231 232 234 235 237 239 241 244 247 250 252 255 258 260 264 268 270 273 276 279 281 283 284 285 286 287 289
225 226 225 224 223 224 226 226 226 228 229 230 231 230 229 230 232 232 233 235 236 238 240 242 245 247 250 253 256 258 260 264 268 270 273 276 279 281 283 284 286 287 289 290
224 225 223 222 224 224 225 226 227 228 229 230 230 229 228 230 231 233 234 236 238 239 241 244 246 248 250 253 256 259 262 265 268 271 273 276 279 281 283 285 286 288 289 291
224 224 223 225 225 223 223 225 227 229 231 232 231 230 230 230 231 233 234 236 238 240 242 245 247 249 250 253 256 258 261 264 268 271 273 276 279 281 284 286 287 288 290 292
222 221 224 225 223 223 223 223 225 228 230 231 231 230 230 231 232 234 235 237 239 241 243 245 247 249 252 253 255 257 260 264 268 271 274 276 279 282 284 286 287 289 291 292
223 222 225 225 225 225 225 224 224 226 228 230 230 229 229 230 232 233 234 236 239 241 243 244 246 249 250 252 254 256 260 263 267 270 273 276 279 282 284 286 288 290 292 294
223 223 224 222 223 223 224 224 224 224 225 227 228 228 228 229 230 231 232 235 237 239 240 242 244 247 249 251 253 256 260 263 267 270 273 276 279 282 284 286 289 291 292 294
224 222 222 220 220 221 222 222 221 222 222 225 225 225 227 229 230 231 232 233 235 236 238 239 242 245 248 250 253 257 260 263 267 270 273 276 279 282 284 287 289 291 293 295
224 224 223 221 221 221 221 222 222 221 221 223 223 223 225 227 230 231 231 231 233 235 237 239 243 246 249 251 254 258 261 264 267 270 274 277 280 282 285 287 289 291 294 295
225 226 223 220 220 221 221 221 222 220 221 222 223 223 224 226 227 229 230 230 231 233 236 239 242 245 248 251 254 259 262 264 268 271 274 277 280 283 285 288 290 292 294 295
225 225 224 222 221 220 219 219 220 220 221 221 220 221 223 225 226 228 229 229 231 233 236 239 242 245 248 252 256 259 262 266 268 271 274 278 281 283 286 288 291 293 294 296
224 223 223 223 221 219 218 218 219 220 221 221 222 222 224 225 225 224 226 228 230 233 236 239 242 246 250 254 257 260 263 266 270 273 276 279 281 284 287 289 291 293 295 296
223 221 221 221 219 217 216 216 217 218 219 221 222 223 223 224 225 225 227 229 233 235 238 241 245 248 252 256 259 262 265 268 271 274 276 279 282 284 287 289 291 293 295 298
221 220 219 218 217 216 216 216 216 216 218 218 220 222 223 224 225 227 228 231 234 238 241 243 247 250 253 257 260 263 266 269 272 275 277 280 283 285 288 289 291 293 296 298
218 217 217 216 216 217 217 216 215 214 215 217 219 221 223 224 226 229 231 234 237 239 242 245 248 251 255 258 262 265 268 271 274 276 278 281 284 286 288 290 292 295 297 299
217 216 215 215 216 216 217 216 214 215 216 216 218 221 223 224 226 229 232 235 239 241 243 246 250 253 257 261 264 267 270 273 275 277 280 283 285 287 288 291 294 296 298 300
215 214 213 214 214 214 214 214 213 213 214 215 217 220 222 224 226 229 232 237 240 242 245 248 252 255 259 262 265 267 270 273 276 279 281 283 285 288 290 293 295 297 299 301
213 211 210 210 210 209 210 211 212 212 213 214 217 219 221 225 227 229 232 237 240 244 247 250 253 257 260 262 266 269 272 275 277 279 281 284 286 289 292 294 296 298 300 302
211 208 206 208 209 208 208 209 210 212 213 214 216 218 221 224 226 229 234 238 242 246 249 252 255 259 262 265 268 271 273 276 278 280 283 286 289 291 294 297 298 300 302 303
206 202 203 206 206 205 205 206 208 209 211 213 216 220 222 225 228 232 237 240 243 247 251 254 257 260 264 267 269 272 274 277 279 282 285 288 291 294 296 298 300 301 302 303
200 199 201 202 203 204 205 207 208 210 213 215 217 221 224 227 230 234 238 242 246 250 253 256 259 262 265 268 271 273 276 279 282 285 288 290 293 295 297 298 300 301 302 304
198 199 201 203 204 206 207 208 210 213 215 217 218 222 226 229 232 236 239 243 248 251 254 256 259 262 265 269 272 276 279 282 285 288 290 292 295 296 298 299 301 301 302 303
Height
5557 5564 5570 5577 5584 5591 5597 5606 5615 5625 5632 5640 5644 5649 5654 5659 5664 5668 5673 5677 5681 5685 5689 5692 5695 5698 5700 5702 5703 5705 5706 5707 5707 5708 5707 5707 5705 5704 5702 5701 5699 5696 5694 5691
5548 5554 5560 5566 5573 5581 5589 5597 5606 5613 5622 5631 5634 5639 5644 5650 5655 5660 5664 5668 5672 5676 5680 5683 5686 5689 5691 5693 5695 5696 5697 5698 5699 5699 5698 5698 5697 5695 5694 5692 5690 5687 5685 5682
5540 5546 5550 5557 5567 5574 5582 5589 5597 5604 5615 5621 5625 5630 5635 5641 5646 5651 5655 5659 5663 5667 5671 5674 5677 5680 5682 5684 5686 5687 5688 5689 5690 5690 5689 5689 5688 5686 5685 5683 5681 5678 5676 5674
5531 5537 5542 5555 5561 5567 5574 5582 5588 5596 5603 5610 5615 5620 5625 5630 5636 5641 5646 5651 5655 5659 5662 5665 5668 5671 5673 5675 5677 5678 5679 5680 5681 5681 5680 5680 5679 5677 5676 5674 5672 5669 5667 5664
5523 5528 5535 5545 5553 5560 5566 5573 5580 5586 5592 5598 5604 5608 5614 5621 5626 5632 5637 5642 5646 5650 5653 5656 5659 5662 5664 5666 5668 5669 5671 5671 5672 5672 5671 5670 5670 5668 5667 5665 5663 5660 5658 5655
5514 5520 5528 5540 5547 5551 5557 5563 5571 5576 5581 5587 5593 5599 5609 5613 5617 5622 5627 5632 5636 5640 5643 5647 5650 5653 5655 5657 5659 5660 5661 5662 5662 5662 5662 5661 5661 5659 5657 5655 5653 5651 5648 5646
5506 5510 5519 5530 5537 5541 5549 5557 5562 5566 5571 5577 5583 5592 5599 5602 5607 5612 5617 5622 5626 5630 5634 5638 5641 5643 5646 5648 5650 5651 5652 5653 5653 5653 5653 5652 5651 5650 5648 5646 5644 5642 5639 5636
5497 5504 5516 5522 5527 5534 5540 5547 5552 5556 5561 5567 5574 5580 5585 5591 5596 5601 5607 5612 5616 5620 5625 5628 5631 5634 5637 5639 5641 5642 5643 5644 5644 5644 5644 5643 5642 5640 5639 5637 5634 5632 5629 5626
5491 5501 5508 5512 5517 5524 5530 5536 5541 5546 5552 5558 5564 5569 5575 5581 5586 5592 5597 5602 5606 5611 5615 5619 5622 5624 5628 5630 5631 5633 5634 5634 5634 5635 5634 5633 5632 5631 5629 5627 5625 5622 5619 5617
5483 5491 5497 5502 5507 5514 5520 5526 5531 5537 5542 5548 5554 5560 5565 5571 5577 5582 5587 5592 5597 5602 5606 5609 5612 5615 5618 5620 5622 5623 5624 5625 5625 5625 5625 5624 5622 5621 5619 5618 5615 5613 5610 5607
5475 5483 5488 5493 5499 5505 5511 5516 5522 5528 5533 5539 5545 5551 5556 5562 5567 5573 5578 5582 5587 5592 5596 5599 5602 5605 5608 5610 5612 5613 5615 5615 5616 5615 5615 5614 5613 5612 5610 5608 5606 5603 5600 5597
5468 5475 5479 5485 5490 5495 5501 5508 5514 5520 5525 5530 5536 5542 5547 5553 5558 5563 5568 5573 5577 5581 5585 5589 5592 5595 5598 5600 5602 5604 5605 5605 5606 5606 5605 5604 5603 5602 5600 5598 5596 5593 5590 5587
5459 5463 5469 5476 5481 5487 5493 5499 5505 5511 5517 5522 5528 5533 5539 5544 5549 5554 5559 5563 5568 5572 5576 5580 5583 5586 5588 5591 5592 5594 5595 5596 5596 5596 5595 5595 5593 5592 5590 5588 5585 5582 5579 5576
5448 5453 5460 5467 5473 5478 5484 5490 5497 5503 5508 5514 5519 5525 5530 5535 5540 5545 5550 5554 5559 5563 5567 5570 5574 5576 5579 5581 5583 5585 5586 5586 5586 5586 5586 5585 5583 5582 5580 5578 5575 5572 5569 5565
5439 5444 5451 5457 5463 5469 5475 5482 5489 5495 5500 5506 5511 5517 5522 5527 5532 5536 5541 5546 5550 5554 5558 5562 5565 5568 5570 5572 5574 5575 5576 5577 5577 5576 5576 5575 5573 5572 5570 5567 5565 5562 5558 5555
5429 5435 5441 5448 5455 5461 5467 5474 5481 5487 5493 5498 5504 5509 5514 5519 5523 5528 5532 5537 5542 5546 5550 5553 5556 5558 5561 5563 5564 5566 5566 5567 5567 5566 5566 5565 5563 5561 5559 5557 5554 5551 5548 5544
5420 5426 5433 5439 5446 5453 5459 5466 5473 5479 5485 5491 5496 5501 5506 5511 5516 5520 5525 5529 5534 5538 5541 5544 5547 5549 5551 5553 5555 5556 5556 5557 5557 5556 5556 5554 5553 5551 5549 5546 5544 5540 5537 5533
5411 5417 5423 5430 5437 5444 5451 5458 5465 5471 5477 5483 5488 5493 5499 5504 5508 5513 5517 5522 5526 5529 5533 5536 5538 5540 5542 5544 5545 5546 5547 5547 5547 5546 5545 5544 5542 5540 5538 5535 5532 5529 5526 5521
5402 5408 5415 5423 5429 5436 5444 5450 5457 5463 5469 5475 5480 5486 5491 5496 5500 5505 5509 5514 5518 5521 5524 5527 5529 5532 5534 5535 5536 5537 5537 5537 5537 5536 5535 5534 5532 5530 5527 5524 5521 5518 5514 5510
5394 5401 5408 5415 5422 5429 5436 5443 5449 5455 5461 5467 5473 5479 5484 5488 5493 5497 5501 5506 5510 5513 5516 5518 5521 5523 5525 5526 5526 5527 5527 5527 5526 5526 5524 5523 5521 5519 5516 5513 5510 5506 5502 5498
5388 5394 5401 5408 5415 5422 5429 5435 5441 5448 5454 5460 5466 5471 5476 5481 5485 5490 5494 5498 5501 5504 5507 5510 5512 5514 5515 5516 5517 5517 5517 5517 5516 5515 5514 5512 5510 5508 5505 5502 5498 5495 5490 5486
5381 5387 5394 5401 5408 5414 5421 5428 5434 5441 5447 5453 5458 5464 5469 5473 5477 5482 5486 5490 5493 5496 5498 5501 5503 5504 5505 5506 5507 5507 5507 5506 5505 5504 5503 5501 5499 5496 5494 5490 5487 5483 5478 5474
5375 5381 5387 5394 5401 5407 5414 5420 5427 5433 5439 5445 5451 5456 5461 5466 5470 5474 5478 5482 5484 5487 5490 5492 5493 5495 5496 5496 5497 5497 5496 5496 5495 5493 5492 5490 5488 5485 5482 5479 5475 5471 5466 5461
5370 5375 5382 5388 5395 5401 5408 5414 5421 5427 5432 5438 5443 5449 5454 5458 5462 5466 5470 5473 5476 5478 5481 5482 5484 5485 5486 5486 5486 5486 5486 5485 5484 5482 5481 5479 5476 5473 5470 5467 5463 5458 5454 5449
5365 5371 5377 5383 5390 5396 5402 5408 5414 5420 5426 5431 5437 5442 5446 5450 5454 5458 5461 5464 5467 5469 5471 5473 5474 5475 5476 5476 5476 5476 5475 5474 5473 5472 5470 5467 5465 5461 5458 5454 5450 5446 5441 5436
5362 5367 5373 5379 5385 5391 5397 5403 5409 5415 5420 5425 5430 5435 5439 5443 5446 5450 5453 5456 5458 5460 5462 5464 5465 5465 5466 5466 5466 5465 5464 5463 5462 5460 5458 5455 5452 5449 5445 5441 5437 5432 5427 5422
5359 5364 5369 5375 5381 5386 5392 5398 5404 5409 5414 5419 5423 5428 5431 5435 5439 5442 5445 5447 5449 5451 5453 5454 5455 5455 5456 5456 5456 5455 5454 5452 5451 5448 5446 5443 5439 5436 5432 5428 5423 5418 5414 5408